CST,Max TemperatureF,Mean TemperatureF,Min TemperatureF,Max Dew PointF,MeanDew PointF,Min DewpointF,Max Humidity, Mean Humidity, Min Humidity, Max Sea Level PressureIn, Mean Sea Level PressureIn, Min Sea Level PressureIn, Max VisibilityMiles, Mean VisibilityMiles, Min VisibilityMiles, Max Wind SpeedMPH, Mean Wind SpeedMPH, Max Gust SpeedMPH,PrecipitationIn, CloudCover, Events, WindDirDegrees
2013-12-1,37,32,28,27,24,23,80,72,56,30.17,30.05,29.83,10,9,7,8,4,,0.00,6,,122
2013-12-2,46,39,32,32,29,27,87,75,57,29.82,29.59,29.49,10,8,7,14,6,17,0.00,3,,172
2013-12-3,35,32,28,32,30,27,100,95,81,29.74,29.65,29.55,10,4,2,15,8,20,0.02,8,Rain-Snow,21
2013-12-4,30,20,10,27,18,5,93,85,73,29.90,29.69,29.59,7,2,0,31,13,38,0.01,7,Snow,317
2013-12-5,10,3,-4,3,-3,-11,85,72,66,30.37,30.18,29.92,10,8,1,30,19,39,0.00,0,Snow,293
2013-12-6,1,-6,-14,-8,-14,-20,78,71,65,30.65,30.51,30.37,10,10,10,14,7,,0.00,0,,296
2013-12-7,5,-4,-14,1,-12,-22,85,74,61,30.69,30.59,30.42,10,9,2,8,3,,0.00,1,Snow,263
2013-12-8,14,7,0,10,5,-4,92,80,73,30.40,30.14,30.02,10,4,1,13,8,,0.00,6,Snow,173
2013-12-9,17,5,-7,10,-6,-13,85,74,61,30.19,30.06,29.80,10,10,4,20,11,25,0.00,1,Snow,254
2013-12-10,23,13,3,19,7,-4,86,77,67,30.29,30.06,29.80,10,6,0,30,15,39,0.01,4,Snow,272
2013-12-11,10,-5,-20,5,-8,-27,85,72,65,30.57,30.44,30.27,10,10,2,16,9,22,0.00,1,,246
2013-12-12,28,14,1,21,11,-2,93,82,69,30.27,30.18,30.03,10,10,7,9,3,,0.00,2,,217
2013-12-13,19,14,10,14,11,7,93,83,74,30.20,30.06,29.98,10,8,3,20,10,28,0.00,3,,50
2013-12-14,15,10,5,9,6,0,85,78,73,30.21,30.16,30.11,10,9,3,15,8,,0.00,6,Snow,323
2013-12-15,12,8,5,9,3,0,85,76,67,30.11,30.05,30.00,10,10,4,10,6,,0.00,8,Snow,81
2013-12-16,30,18,5,27,13,1,92,81,73,30.05,29.99,29.91,10,9,2,17,8,,0.00,2,Snow,239
2013-12-17,32,22,10,28,19,9,92,77,64,30.17,30.11,30.02,10,10,7,22,13,31,0.00,1,,291
2013-12-18,35,24,12,30,21,10,93,82,69,30.00,29.76,29.68,10,10,10,13,4,,0.00,0,,189
2013-12-19,26,17,8,23,10,3,93,82,73,29.99,29.93,29.81,10,8,3,22,13,30,0.00,4,Snow,28
2013-12-20,17,14,10,10,8,5,92,81,73,29.98,29.92,29.83,10,9,4,15,9,21,0.00,8,Snow,357
2013-12-21,21,14,8,18,10,3,92,83,73,29.94,29.87,29.79,10,10,7,17,3,22,0.00,5,,40
2013-12-22,12,5,-2,7,1,-8,79,75,67,30.35,30.12,29.95,10,9,5,16,11,21,0.00,3,Snow,334
2013-12-23,1,-8,-16,-9,-17,-24,78,64,43,30.52,30.46,30.35,10,10,10,15,9,18,0.00,0,,309
2013-12-24,19,2,-16,16,-3,-24,86,73,60,30.45,30.19,30.03,10,7,1,25,7,32,0.01,4,Snow,178
2013-12-25,32,24,15,28,21,12,93,84,69,30.20,30.14,30.05,10,8,2,21,10,28,0.00,5,Snow,279
2013-12-26,33,24,14,28,21,12,93,84,74,30.18,30.09,30.03,10,10,2,13,5,,0.00,3,,244
2013-12-27,37,22,8,32,20,5,100,87,75,30.18,30.06,29.99,10,7,0,10,2,,0.00,1,Fog-Snow,241
2013-12-28,41,24,6,32,18,1,93,85,70,30.17,29.87,29.68,10,6,1,32,6,43,0.00,2,Snow,303
2013-12-29,6,-2,-11,1,-13,-18,85,65,51,30.40,30.29,30.17,10,9,2,26,16,38,0.00,2,,336
2013-12-30,15,5,-5,10,1,-9,86,76,61,30.22,30.11,29.99,10,8,1,16,6,20,0.00,5,Snow,194
2013-12-31,8,3,-2,1,-2,-9,85,77,71,30.28,30.21,30.17,10,7,0,16,7,22,0.00,7,Snow,60